Regional Weather Roundup
Issued by NWS Jackson, KY

Home | Current Version | Previous Version | Graphics & Text | Print | Product List | Glossary On
Versions: 1 2 3 4 5 6 7 8 9 10 11 12 13 14 15 16 17 18 19 20 21 22 23 24 25 26 27 28 29 30 31 32 33 34 35 36 37 38 39 40 41 42 43 44 45 46 47 48 49 50
000
ASUS43 KJKL 280310
RWRJKL

EAST KENTUCKY HOURLY WEATHER ROUNDUP
NATIONAL WEATHER SERVICE JACKSON KY
1100 PM EDT WED MAY 27 2015

NOTE: "FAIR" INDICATES FEW OR NO CLOUDS BELOW 12,000 FEET WITH
NO SIGNIFICANT WEATHER AND/OR OBSTRUCTIONS TO VISIBILITY.

* THESE REPORTS ARE NOT UNDER NWS QUALITY CONTROL AND MAY NOT
  REPORT WEATHER SUCH AS PRECIPITATION AND FOG.

KYZ079-080-083-085-087-088-110-112-115-119-120-280400
...EASTERN KENTUCKY...

CITY           SKY/WX    TMP DP  RH WIND       PRES   REMARKS
JACKSON        MOCLDY    69  61  75 CALM      30.19R
LONDON         CLOUDY    66  58  75 CALM      30.20R
SOMERSET*      MOCLDY    61  61 100 CALM      30.22R
MONTICELLO*    CLOUDY    65  64  96 CALM      30.23R
MIDDLESBORO*   CLOUDY    66  66  99 CALM      30.22S
HARLAN APT*    CLOUDY    70  63  78 N9        30.22R
HAZARD APT*    CLOUDY    72  63  73 SW3       30.19R
BLACK MTN*       N/A     63  59  88 SW1         N/A
PIKEVILLE APT* CLOUDY    72  61  68 S5        30.19R
BIG SANDY*     MOCLDY    73  61  66 CALM      30.17S
MOREHEAD APT*  MOCLDY    63  61  94 CALM      30.20R FOG
$$

KYZ035-036-041-042-044-050-067-078-099-280400
...CENTRAL KENTUCKY...

CITY           SKY/WX    TMP DP  RH WIND       PRES   REMARKS
MT STERLING*   PTCLDY    61  61 100 CALM      30.20R
FLEMING/MASON* CLEAR     63  61  94 SW3       30.17S
DANVILLE*      PTCLDY    61  61 100 SW6       30.21R
RICHMOND*      PTCLDY    63  59  88 SW5       30.19R
LEXINGTON      MOCLDY    63  61  93 S3        30.18R
FRANKFORT      CLOUDY    63  60  90 SW7       30.15S
$$

KYZ091>093-OHZ055-061-077-WVZ005-015-034-035-042-280400
...SOUTHERN OHIO/WEST VIRGINIA...

CITY           SKY/WX    TMP DP  RH WIND       PRES   REMARKS
COVINGTON      CLOUDY    66  61  84 SW8       30.14R
COLUMBUS       MOCLDY    73  56  54 SW13G20   30.10R
DAYTON         CLOUDY    71  61  70 SW12      30.12R
WILMINGTON     MOCLDY    67  58  72 SW10      30.13R
HUNTINGTON     MOCLDY    69  58  67 W3        30.16R
CHARLESTON     PTCLDY    67  64  90 CALM      30.15R
PINEVILLE*     CLEAR     64  64  99 MISG      30.26R
BECKLEY        CLEAR     66  57  72 S3        30.25R
BLUEFIELD      CLEAR     69  57  65 SW3       30.27R
$$

VAZ002-007-008-TNZ017-027-036-066-071-280400
...SOUTHWEST VIRGINIA/EAST TENNESSEE...

CITY           SKY/WX    TMP DP  RH WIND       PRES   REMARKS
WISE*          PTCLDY    66  55  68 SW3       30.28S
JONESVILLE*    CLOUDY    68  63  83 CALM      30.23R
ABINGDON*      CLEAR     67  61  81 CALM      30.25R
BRISTOL        PTCLDY    68  60  75 CALM      30.23R
KNOXVILLE      CLOUDY    75  62  64 SW3       30.20R
OAK RIDGE      CLOUDY    74  67  78 CALM      30.21R
CROSSVILLE     CLOUDY    68  62  81 SW3       30.26R
NASHVILLE      CLOUDY    69  67  93 S6        30.20R
$$

...KEY TO REMARKS...
VSB - VISIBILITY IN MILES
WCI - WIND CHILL INDEX
HX  - HEAT INDEX

$$



USA.gov is the U.S. government's official web portal to all federal, state and local government web resources and services.